Location: Sungai Jaoh
(2.9167°N, 113.9167°E)
Time: 15:34:25
(UTC+00:00)

Cosmos 2181 Rocket - Pass Details

Date: 30 November 2020
Orbit: 951 x 1015 km, 82.9° (Epoch: 25 January)

Event Time Altitude Azimuth Distance (km) Brightness Sun altitude
Rises 21:19:20 0° 360° (N) 3,617 6.8 -13.6°
Reaches altitude 10° 21:21:50 10° 2° (N) 2,670 6.1 -13.0°
Maximum altitude 21:27:55 76° 87° (E) 980 4.2 -11.6°
Drops below altitude 10° 21:34:01 10° 172° (S) 2,679 6.7 -10.2°
Sets 21:36:31 0° 173° (S) 3,631 7.4 -9.6°
